Simultaneous Nadir Overpasses (SNOs) Predictions

Prediction of SNOs between LANDSAT-8 and METOP-B Satellite Orbit:

Table of predicted SNOs for the next 14.0 days since TLE Epoch: 11/21/2016
Index Date (LANDSAT-8) Time (LANDSAT-8) Lat,Lon (LANDSAT-8) SZA (LANDSAT-8 ) Date (METOP-B) Time (METOP-B) Lat,Lon (METOP-B) SZA (METOP-B ) Distance(km) Time Diff (sec)
1 11/23/2016 01:33:20 -81.09, 16.11 76.28 11/23/2016 01:32:58 -81.09, 16.04 76.30 1.42 22
2 11/23/2016 02:22:46 81.10,-176.15 103.75 11/23/2016 02:23:38 81.10,-176.33 103.75 3.17 52
3 11/25/2016 21:07:34 -81.10, 82.63 75.74 11/25/2016 21:07:20 -81.10, 82.66 75.74 0.54 14
4 11/25/2016 21:57:00 81.10,-109.65 104.29 11/25/2016 21:58:00 81.11,-109.75 104.30 1.74 60
5 11/28/2016 16:41:49 -81.10, 149.11 75.25 11/28/2016 16:41:43 -81.10, 149.25 75.24 2.47 6
6
